Retour au catalogue

COSMOS 2251 DEB

ActifLEO
NORAD 53093·DEBRIS·🇷🇺 Russia

Lancé Jun 16, 1993 depuis Plesetsk Cosmodrome

Loading…

Prochains Passages (prochaines 24 heures)

TLE

FraisSource: Space-Track

Époque: Sep 14, 2026, 03:38 UTC

1 53093U 93036BYP 26257.15175226  .00001059  00000-0  32278-3 0  9992
2 53093  74.0350 150.4085 0020840 169.3372 190.8231 14.43081858216970

Suivez COSMOS 2251 DEB en temps réel avec AllMySat

Download on the App Store